Starlink 33619

operational
NORAD ID: 63324 Int'l Des: 2025-057 Owner: SPXS Country: US Constellation: starlink
LEOCIRCULAR

Über Starlink 33619

Beschreibung wird geladen...

Live-Position

3D-Globus wird geladen...

Nächste Überflüge

Höhenverlauf

Altitude vs Time

uPlot chart will show altitude changes over time

Zweizeiliger Elementsatz

1 63324U 25057T 25305.93163570 .00024881 00000-0 91076-3 0 9995
2 63324 43.0033 31.9108 0000848 259.6791 100.3965 15.27575837 36243
Epoch: 1. Nov. 2025 • Age: 27 hours

Aktueller Status

Höhe 483.8 km
Geschwindigkeit 7.63 km/s
Subsatellitenpunkt 29.67°N, 101.23°E
Startdatum 18. März 2025
Alter 0.6 years
Typ internet

Technische Details

Klassifizierung Payload
Masse 575.00 kg
Trockenmasse 530.00 kg
Gesamtmasse 575.00 kg
Länge 0.30 m
Durchmesser 4.10 m
Spannweite 29.00 m
Form Box + pan
Hersteller SPXS
Bus-Typ Starlink V2MO
Phasenstatus In Orbit
Besitzer/Staat SPXS/US

Große Konstellationen

Loading constellations...